Weather History for Worland, WY

Change the Weather History Date:

Tuesday, December 11, 2012

  Actual Average Record
Temperature  
Mean Temperature 17 °F 18 °F  
Max Temperature 29 °F 31 °F 56 °F (1993)
Min Temperature 5 °F 5 °F -31 °F (1972)
Degree Days  
Heating Degree Days 48 47  
Month to date heating degree days 390 498  
Since 1 July heating degree days 1782 2390  
Cooling Degree Days 0 0  
Month to date cooling degree days 0 0  
Year to date cooling degree days 901 535  
Moisture  
Dew Point 13 °F    
Average Humidity 84    
Maximum Humidity 100    
Minimum Humidity 68    
Precipitation  
Precipitation 0.00 in 0.01 in 0.07 in (1968)
Month to date precipitation 0.04 0.09  
Year to date precipitation 2.69 7.43  
Sea Level Pressure  
Sea Level Pressure 29.92 in    
Wind  
Wind Speed 2 mph (SSW)    
Max Wind Speed 10 mph    
Max Gust Speed 10 mph    
Visibility 10 miles    
Events      
T = Trace of Precipitation, MM = Missing Value Source: NWS Daily Summary

Daily Weather History Graph

Daily Weather History Graph

Search for Another Location

Airport:

Trip Planner

Search our weather history database for the weather conditions in past years. The results will help you decide how hot, cold, wet, or windy it might be!

Date:

Astronomy

Dec. 11, 2012 Rise Set
Actual Time 7:36 AM MST 4:33 PM MST
Civil Twilight 7:03 AM MST 5:06 PM MST
Nautical Twilight 6:27 AM MST 5:43 PM MST
Astronomical Twilight 5:52 AM MST 6:18 PM MST
Moon 5:33 AM MST (12/11) 3:17 PM MST (12/11)
Length of Visible Light 10h 02m
Length of Day
8h 57m
Waning Crescent, 4% of the Moon is Illuminated
Dec 11
Waning Crescent
Dec 13
New
Dec 19
First Quarter
Dec 28
Full
Jan 4
Last Quarter

Hourly Weather History & Observations

Time (MST) Temp. Windchill Dew Point Humidity Pressure Visibility Wind Dir Wind Speed Gust Speed Precip Events Conditions
12:53 AM 17.1 °F - 14.0 °F 88% 30.11 in 10.0 mi Calm Calm - N/A   Scattered Clouds
1:53 AM 10.0 °F - 7.0 °F 87% 30.12 in 10.0 mi Calm Calm - N/A   Clear
2:53 AM 10.9 °F 0.2 °F 9.0 °F 92% 30.09 in 10.0 mi SW 6.9 mph - N/A   Mostly Cloudy
3:53 AM 12.0 °F - 10.9 °F 95% 30.07 in 10.0 mi Calm Calm - N/A   Mostly Cloudy
4:53 AM 7.0 °F -1.7 °F 5.0 °F 92% 30.08 in 10.0 mi South 4.6 mph - N/A   Partly Cloudy
5:53 AM 7.0 °F - 3.9 °F 87% 30.07 in 10.0 mi Calm Calm - N/A   Clear
6:53 AM 6.1 °F -5.6 °F 3.0 °F 87% 30.06 in 10.0 mi SSW 6.9 mph - N/A   Clear
7:53 AM 6.1 °F -4.3 °F 3.0 °F 87% 30.04 in 10.0 mi South 5.8 mph - N/A   Clear
8:53 AM 10.0 °F - 8.1 °F 92% 30.01 in 10.0 mi Calm Calm - N/A   Clear
9:53 AM 12.9 °F 6.9 °F 10.0 °F 88% 29.97 in 10.0 mi SSW 3.5 mph - N/A   Clear
10:53 AM 15.1 °F 7.7 °F 10.9 °F 84% 29.94 in 10.0 mi WSW 4.6 mph - N/A   Clear
11:53 AM 19.9 °F - 14.0 °F 78% 29.89 in 10.0 mi Calm Calm - N/A   Clear
12:53 PM 25.0 °F 20.7 °F 17.1 °F 72% 29.85 in 10.0 mi NW 3.5 mph - N/A   Clear
1:53 PM 27.0 °F - 18.0 °F 69% 29.84 in 10.0 mi Calm Calm - N/A   Clear
2:53 PM 28.0 °F - 19.0 °F 69% 29.81 in 10.0 mi Calm Calm - N/A   Clear
3:53 PM 26.1 °F 21.9 °F 19.0 °F 75% 29.81 in 10.0 mi North 3.5 mph - N/A   Clear
4:53 PM 21.9 °F 17.2 °F 17.1 °F 82% 29.82 in 10.0 mi WNW 3.5 mph - N/A   Clear
5:53 PM 19.0 °F - 15.1 °F 85% 29.84 in 10.0 mi Calm Calm - N/A   Clear
6:53 PM 19.9 °F - 16.0 °F 85% 29.83 in 10.0 mi Calm Calm - N/A   Mostly Cloudy
7:53 PM 21.9 °F 17.2 °F 17.1 °F 82% 29.81 in 10.0 mi NE 3.5 mph - N/A   Mostly Cloudy
8:53 PM 23.0 °F 18.4 °F 17.1 °F 78% 29.79 in 10.0 mi South 3.5 mph - N/A   Clear
9:53 PM 23.0 °F 18.4 °F 18.0 °F 81% 29.78 in 10.0 mi South 3.5 mph - N/A   Partly Cloudy
10:53 PM 21.0 °F - 17.1 °F 85% 29.77 in 10.0 mi Calm Calm - N/A   Clear
11:53 PM 21.0 °F 16.2 °F 17.1 °F 85% 29.74 in 10.0 mi SE 3.5 mph - N/A   Clear